Regional Weather Roundup
Issued by NWS Upton, NY

Current Version | Previous Version | Text Only | Print | Product List | Glossary On
Versions: 1 2 3 4 5 6 7 8 9 10 11 12 13 14 15 16 17 18 19 20 21 22 23 24 25 26 27 28 29 30 31 32 33 34 35 36 37 38 39 40 41 42 43 44 45 46 47 48 49 50
000
ASUS41 KOKX 031018
RWROKX

REGIONAL WEATHER ROUNDUP
NATIONAL WEATHER SERVICE NEW YORK NY
600 AM EDT WED JUN 03 2015

NOTE: "FAIR" INDICATES FEW OR NO CLOUDS BELOW 12,000 FEET WITH NO
SIGNIFICANT WEATHER AND/OR OBSTRUCTIONS TO VISIBILITY.

NYZ071-072-176-178-NJZ106-104-031100-
NEW YORK CITY METRO AREA


CITY           SKY/WX    TMP DP  RH WIND       PRES   REMARKS
CENTRAL PARK   CLOUDY    53  49  86 NE7       30.23R
LAGUARDIA APRT CLOUDY    53  48  83 NE9       30.21R
KENNEDY INTL   CLOUDY    53  49  86 NE6       30.21R
NEWARK/LIBERTY CLOUDY    54  50  86 NE9       30.21R
BRNX BOT. GARD   N/A     52  48  87 NW3       30.24R
TETERBORO      CLOUDY    53  48  83 NE5       30.20R
$$

NYZ177-179-078>081-031100-
LONG ISLAND NEW YORK

CITY           SKY/WX    TMP DP  RH WIND       PRES   REMARKS
FARMINGDALE    CLOUDY    51  49  92 NE3       30.21R
ISLIP          CLOUDY    50  48  93 N5        30.19R
SHIRLEY        CLOUDY    50  48  93 CALM      30.21R
WESTHAMPTON    MOCLDY    49  48  97 NW3       30.22R
MONTAUK POINT    N/A     50  45  83 NE6       30.21S
$$

NYZ052-065-067-031100-
HUDSON VALLEY

CITY           SKY/WX    TMP DP  RH WIND       PRES   REMARKS
WHITE PLAINS   CLOUDY    50  48  93 N3        30.21R
NEWBURGH       CLOUDY    52  52 100 CALM      30.22R FOG
MONTGOMERY     CLOUDY    50  32  50 CALM      30.22R
POUGHKEEPSIE   CLOUDY    52  49  89 CALM      30.21R
ALBANY         PTCLDY    49  43  80 N6        30.25R
$$

NJZ001-105-106-008-010-013-015-019>022-104-031100-
NEW JERSEY

CITY           SKY/WX    TMP DP  RH WIND       PRES   REMARKS
NEWARK/LIBERTY CLOUDY    54  50  86 NE9       30.21R
TETERBORO      CLOUDY    53  48  83 NE5       30.20R
CALDWELL       CLOUDY    53  49  86 NE5       30.21R
MORRISTOWN     CLOUDY    54  50  87 CALM      30.21R
SOMERVILLE     CLOUDY    54  50  86 N3        30.19R
SUSSEX         CLOUDY    51  49  92 CALM      30.22R
ANDOVER          N/A     52  51  97 NE3       30.21R
TRENTON        CLOUDY    53  51  93 NE6       30.18R
MILLVILLE      CLOUDY    54  52  93 NE9       30.15R
ATLANTIC CITY  CLOUDY    53  51  93 NE9G17    30.15R
WRIGHTSTOWN    LGT RAIN  52  50  93 NE12      30.15S
TOMS RIVER     CLOUDY   N/A N/A N/A NE6       30.18R
BELMAR         CLOUDY    52  45  76 NE7       30.19R
$$

PAZ047>061-062-071-031100-
EASTERN PENNSYLVANIA

CITY           SKY/WX    TMP DP  RH WIND       PRES   REMARKS
PHILADELPHIA   CLOUDY    55  51  86 NE9       30.17S
ALLENTOWN      CLOUDY    55  53  93 E3        30.20R
SCRANTON       CLOUDY    52  49  89 CALM      30.20R
$$

CTZ002-004>006-009-010-012-RIZ004-006-007-MAZ004-011-015-031100-
SOUTHERN NEW ENGLAND
 IN CT

CITY           SKY/WX    TMP DP  RH WIND       PRES   REMARKS
BRADLEY INTL   FOG       47  45  93 CALM      30.21R VSB 1/8
HARTFORD       CLOUDY    45  44  97 SE7       30.22R
DANBURY        CLOUDY    47  44  90 SW3       30.23R
WTRBRY/OXFORD  CLOUDY    46  39  76 N3        30.22R
BRIDGEPORT     CLOUDY   N/A N/A N/A MISG      30.22R
MERIDEN        CLOUDY    46  43  89 NW6       30.21R
NEW HAVEN      CLOUDY    48  46  93 CALM      30.21R
CHESTER        DRIZZLE   45  45 100 NE5       30.21R
GROTON         CLOUDY    48  45  89 N8        30.20R
WILLIMANTIC    CLOUDY    47  45  93 N5        30.22R

 IN RI

CITY           SKY/WX    TMP DP  RH WIND       PRES   REMARKS
PROVIDENCE     CLOUDY    47  44  90 N6        30.21S
BLOCK ISLAND   CLOUDY    48  45  87 NE9       30.20S
WESTERLY       CLOUDY    47  45  93 N7        30.21R

 IN MA

CITY           SKY/WX    TMP DP  RH WIND       PRES   REMARKS
BOSTON         CLOUDY    48  45  89 CALM      30.22S
WORCESTER      PTCLDY    47  44  90 NW5       30.20R
WESTFIELD      FOG       47  45  93 CALM      30.22R VSB 1/4
PROVINCETOWN   CLOUDY    48  43  81 N12       30.21S
NANTUCKET      CLOUDY    50  45  83 N14       30.19R
$$

ANZ330-335-338-340-345-350-353-355-031100-
COASTAL MARINE OBSERVATIONS


STATION/POSITION TIME  SKY/WX   TEMP    WIND        PRES    VSBY  WAVE
                                AIR SEA DIR/SP/G                  HT/PER
                 (UTC)          (F)     (DEG/KT/KT) (MB)    (MI)  (FT/S)
NY HARB ENTRANCE 0950            53 56   50/ 12/ 14 1022.0          4/ 7
4S FIRE IS       1003               54                N/A           3/ 6
20S FIRE ISLAND  0950            52 55   50/ 14/ 17 1021.5          5/ 6
GREAT SOUTH BAY  0900            52 63   40/  8/ 12   N/A
23SW MTP         0950            51 56   40/ 14/ 17 1021.6          4/ 8
HUDSON CANYON    NOT AVBL
KINGS POINT      0900            52 57   70/  1/  3 1021.9
CENTRAL LI SOUND 0900            51 55   40/ 10/ 10   N/A
EASTERN LI SOUND 0900            49      30/  8/ 10   N/A
ROBBINS REEF     0900            53      60/ 10/ 11 1021.2
$$


>>>>>>>>>>>>>>>>>>>>>>>>>>>> KEY <<<<<<<<<<<<<<<<<<<<<<<<<<<
>                                                          <
>     SKY/WX - SKY CONDITION/PRESENT WEATHER               <
>     TMP    - TEMPERATURE IN FAHRENHEIT                   <
>     DP     - DEWPOINT IN FAHRENHEIT                      <
>     RH     - RELATIVE HUMIDITY IN PERCENT                <
>     WIND   - DIRECTION AND SPEED IN MPH                  <
>     PRES   - MEAN SEA LEVEL PRESSURE IN INCHES OF HG     <
>     WCI    - WIND CHILL INDEX                            <
>     VSB    - VISIBILITY IN MILES                         <
>     HX     - HEAT INDEX                                  <
>     TC     - TEMPERATURE IN CELSIUS                      <
>     VRB    - VARIABLE WIND DIRECTION                     <
>                                                          <
>>>>>>>>>>>>>>>>>>>>>>>>>>>> KEY <<<<<<<<<<<<<<<<<<<<<<<<<<<




USA.gov is the U.S. government's official web portal to all federal, state and local government web resources and services.